Wind_Speed
12 10 8 7 6 6 6 6 5 4 5 4 4 4 4 5 6 5 4 4 5 6 5 5 6 6 7 6 6 7 7 7 7 6 8 7 6 6 7 7 8 7
13 11 9 8 7 7 8 7 5 5 5 4 5 5 4 3 3 3 4 5 6 7 6 6 6 7 7 7 7 7 7 8 7 7 7 6 5 7 8 8 9 8
13 11 11 10 9 8 7 7 6 6 5 5 6 5 3 3 3 4 5 6 7 7 7 7 8 8 8 7 7 8 9 9 8 8 7 6 6 7 8 7 8 8
14 13 12 11 9 8 8 8 7 7 6 6 6 5 5 5 5 6 6 6 7 8 8 8 8 9 9 8 8 9 10 10 9 8 7 8 8 7 7 7 7 9
16 14 13 12 10 9 9 9 8 7 7 7 8 8 7 6 6 7 8 7 7 8 8 9 9 9 9 9 9 10 10 10 10 9 9 9 9 8 8 7 8 9
16 16 15 14 12 11 11 11 10 9 9 10 10 10 9 8 8 9 9 8 8 9 9 9 10 10 10 10 10 11 11 10 10 10 10 10 9 9 8 7 7 8
17 17 16 14 13 13 12 11 11 11 11 12 12 11 10 10 10 10 9 9 9 10 11 10 10 11 11 11 12 11 10 10 10 11 11 10 9 9 9 7 7 7
19 18 17 15 14 14 13 12 12 12 12 13 13 13 13 13 12 11 10 10 11 13 13 12 11 10 10 11 12 12 10 10 10 11 12 12 11 11 10 8 7 8
20 19 18 16 15 15 14 13 12 13 14 14 14 14 14 14 14 12 11 12 14 15 15 14 12 11 10 10 11 12 11 10 11 11 13 13 12 11 10 9 8 8
20 20 18 17 16 15 14 13 13 14 14 13 12 12 13 14 13 11 11 13 15 16 17 16 14 13 11 10 12 13 14 14 13 12 12 12 12 11 11 10 10 10
21 20 19 18 17 16 15 14 13 13 11 9 7 5 7 7 6 7 9 10 12 12 12 13 13 13 12 12 13 15 15 15 14 13 12 12 12 12 12 11 10 11
21 21 19 18 18 17 15 14 14 13 11 9 6 4 5 6 7 9 9 9 10 9 8 10 11 11 12 13 15 16 16 15 15 14 14 14 14 13 12 12 12 13
22 22 20 20 19 17 15 14 13 12 11 10 10 9 10 10 9 9 9 10 11 11 11 12 13 14 14 15 16 16 15 16 15 14 13 13 14 13 13 13 14 15
24 23 22 21 19 17 14 14 13 13 13 13 14 14 14 13 10 9 10 12 13 14 15 15 15 16 15 15 16 14 13 14 15 14 13 13 14 14 14 15 16 16
26 24 23 21 19 17 15 15 15 15 15 16 17 17 15 14 13 12 13 14 15 16 14 13 14 15 14 14 15 13 11 11 12 13 13 13 14 15 15 16 16 16
27 26 24 21 20 19 18 18 17 17 16 16 16 16 15 15 15 15 15 16 16 16 13 12 14 15 14 14 13 11 11 11 12 12 12 13 15 16 16 16 17 17
27 26 24 22 21 20 19 20 19 17 16 16 16 16 17 17 18 17 16 16 17 16 15 15 17 17 15 15 14 13 13 13 13 13 13 14 16 16 16 16 17 18
27 26 24 23 22 22 21 21 19 18 17 17 18 18 19 19 19 19 18 17 17 17 16 16 17 17 17 16 15 14 14 13 13 13 15 17 18 17 17 16 17 19
26 26 26 26 25 25 24 22 21 20 20 20 20 20 20 21 21 20 18 17 17 16 16 16 17 18 18 17 15 14 12 11 13 15 16 18 19 18 18 17 17 19
30 29 28 28 28 27 25 23 22 21 21 21 20 20 21 21 20 19 19 19 18 16 16 16 17 18 16 15 13 12 10 11 13 15 17 18 19 19 19 18 18 18
32 31 30 30 29 28 26 24 23 22 22 21 21 21 21 21 20 19 18 18 17 15 14 16 19 18 16 13 11 10 11 13 14 16 19 21 20 19 20 19 18 18
33 32 31 29 27 26 25 23 23 23 22 21 21 22 22 21 20 19 18 18 16 15 15 17 17 16 13 11 10 11 12 12 14 17 20 20 19 18 18 18 18 18
32 31 29 27 25 24 24 24 23 23 22 22 23 23 23 22 22 20 17 14 12 11 12 13 13 13 12 11 11 13 12 11 14 17 18 17 16 16 18 18 18 18
30 30 29 26 24 23 23 24 23 23 24 23 22 22 22 21 18 12 9 9 9 10 12 13 13 14 15 14 12 11 10 11 14 15 14 13 14 15 17 17 17 16
29 29 28 26 25 26 26 25 24 24 23 21 21 20 18 14 11 8 8 10 12 14 15 15 14 15 15 15 11 7 9 12 12 12 11 11 13 15 16 17 18 17
28 28 27 25 23 20 19 21 23 22 19 18 16 12 8 8 9 11 11 11 13 14 15 15 14 15 14 11 8 6 9 11 9 8 9 10 12 15 17 19 19 17
Wind_Direction
198 203 210 213 217 222 222 229 246 248 243 255 276 284 281 285 295 302 307 306 307 315 319 312 307 308 311 310 303 308 320 326 329 327 323 328 337 338 338 340 338 333
199 205 212 213 216 224 232 242 247 230 234 261 274 278 288 292 300 304 299 301 309 317 317 310 306 303 305 303 297 303 315 318 315 311 310 316 325 328 328 331 332 331
199 203 208 212 218 225 235 235 224 224 244 271 271 268 282 295 301 306 303 305 309 311 312 310 306 304 306 304 296 297 305 308 305 302 298 296 302 311 318 322 323 320
198 202 208 216 224 225 228 227 228 242 258 270 269 264 274 287 297 307 311 308 303 303 306 308 308 309 311 307 301 298 301 302 297 294 288 285 292 304 313 316 311 309
201 204 207 212 218 221 226 232 236 244 249 252 256 256 264 275 281 292 302 301 300 303 304 304 306 307 308 308 303 297 297 296 290 286 283 282 291 298 299 303 303 306
203 207 209 211 213 216 223 231 236 239 242 245 250 253 257 262 270 283 290 292 298 305 305 302 299 299 301 302 299 293 291 291 286 285 283 280 286 289 286 290 296 299
201 206 208 211 213 214 220 227 234 241 245 246 249 253 255 260 269 278 279 280 289 296 299 300 297 297 298 298 297 291 285 286 285 284 283 280 282 286 281 280 286 289
198 202 205 210 213 214 218 224 232 240 249 254 254 254 254 258 265 267 269 273 280 284 285 287 290 292 294 294 292 288 285 292 293 288 286 282 280 283 282 277 279 283
196 201 206 211 213 214 217 222 232 246 258 262 262 260 255 254 258 260 264 272 276 279 279 279 280 278 279 287 290 285 283 290 290 288 290 286 281 284 287 284 279 274
198 202 206 210 212 214 216 220 233 247 257 263 265 264 257 255 260 264 271 278 278 278 278 277 276 270 267 283 295 291 285 283 282 282 287 287 287 292 294 289 279 266
200 203 206 211 213 215 219 226 234 240 249 263 268 257 247 252 267 276 283 287 284 288 289 283 277 269 267 284 298 298 290 283 278 279 283 284 284 287 288 287 279 268
201 204 207 212 215 217 221 226 232 237 250 270 274 253 244 257 270 276 283 286 286 298 311 301 288 279 281 293 297 298 295 288 282 282 287 290 289 288 286 285 282 277
201 205 209 215 218 217 218 222 231 241 249 258 260 263 270 277 279 277 281 287 288 292 301 301 293 285 286 292 291 291 291 289 288 287 288 293 296 296 292 286 285 284
204 207 208 212 217 218 219 224 231 237 240 245 254 265 274 281 283 278 278 284 285 289 294 292 284 278 279 285 288 286 284 285 287 285 285 293 297 298 295 290 288 289
207 208 206 209 212 214 218 222 225 231 237 245 255 264 272 278 281 280 279 281 282 286 290 286 279 277 278 284 288 285 279 279 281 279 282 290 294 296 299 298 295 294
210 209 206 208 210 212 218 223 228 234 240 246 253 261 268 271 274 277 276 276 279 281 283 284 284 282 281 284 287 281 273 270 269 270 273 279 284 291 298 302 300 298
208 207 205 208 210 213 219 225 230 234 238 243 248 255 262 263 266 271 271 271 274 275 277 281 280 276 275 282 286 279 271 267 265 266 270 273 276 282 290 296 298 298
204 204 205 207 210 215 220 223 227 230 233 237 243 250 257 259 261 265 267 268 268 271 276 278 276 274 276 282 286 282 274 269 266 268 273 275 276 279 284 289 292 294
209 209 209 210 213 216 220 221 224 228 232 236 243 250 255 258 260 262 265 265 263 268 275 276 275 278 282 286 287 282 278 276 273 274 276 277 278 279 280 282 287 291
215 214 212 214 216 217 219 221 224 228 233 237 243 250 254 256 257 259 262 261 260 266 272 276 279 283 290 295 289 282 284 286 283 283 283 283 284 281 276 279 286 290
213 214 214 216 218 218 219 221 224 229 234 238 244 249 252 254 256 260 264 263 261 265 270 276 283 286 289 289 280 274 280 287 290 293 293 292 290 283 277 279 286 291
211 213 215 217 217 217 218 221 225 229 234 239 245 250 252 254 256 258 261 262 263 271 277 282 288 292 294 289 276 270 274 283 292 298 298 296 292 286 282 283 289 293
212 213 215 216 216 217 218 222 225 229 235 242 247 249 251 254 256 259 268 280 293 307 311 306 305 305 298 289 280 271 270 286 301 302 299 295 291 288 287 289 292 294
214 214 216 217 216 218 221 224 227 231 238 243 245 248 253 257 263 273 298 319 321 314 304 297 298 298 286 276 270 265 276 302 310 305 299 293 290 290 291 296 299 300
213 214 217 217 218 222 223 225 229 234 240 244 246 251 256 258 263 272 281 287 285 284 286 287 296 306 296 278 267 269 295 311 310 301 300 299 296 297 299 302 302 303
214 215 218 219 221 225 225 231 236 237 243 250 250 251 253 251 262 270 275 288 292 288 289 291 298 309 304 279 265 284 307 312 308 301 304 302 297 298 300 302 303 303
Height
814 815 817 818 819 820 820 821 821 822 822 822 823 823 823 823 823 823 823 823 823 823 823 823 823 823 823 823 823 822 822 822 821 821 821 820 820 820 820 820 820 820
813 814 815 817 818 819 819 820 820 820 821 822 822 822 822 822 822 822 822 822 822 822 822 822 822 822 822 822 822 822 821 821 821 820 820 819 819 819 819 819 818 818
811 813 814 815 816 817 818 818 819 819 820 820 820 821 821 821 821 821 821 821 821 821 821 821 821 821 821 821 821 821 821 820 820 819 819 818 818 817 817 817 817 817
810 811 812 813 814 815 816 817 817 818 819 819 819 820 820 819 820 819 819 819 819 819 820 820 820 820 820 820 820 819 819 819 818 818 818 817 817 816 816 816 815 815
808 809 810 811 812 814 815 815 816 816 817 818 818 818 818 818 818 818 818 818 818 818 818 819 819 819 819 818 818 818 817 817 817 816 816 816 816 816 815 815 814 814
806 807 808 810 810 812 813 813 815 815 815 816 816 817 817 817 817 817 816 816 816 817 817 817 817 817 817 817 816 816 815 815 815 815 815 815 815 814 814 814 813 813
804 805 807 808 809 810 810 812 813 813 813 814 814 815 816 816 816 815 815 815 815 815 815 815 815 815 815 815 815 814 814 813 813 813 813 813 813 813 812 812 811 811
802 804 805 806 807 808 808 810 811 811 811 812 812 813 814 814 814 813 813 813 813 813 813 813 813 812 813 813 813 813 812 812 812 812 812 811 811 810 810 810 809 809
800 801 803 804 805 806 806 807 808 809 809 810 810 811 811 812 812 812 812 812 812 811 811 811 811 810 810 811 811 811 811 811 810 810 809 809 808 808 808 808 807 807
798 799 801 802 803 804 804 805 806 806 807 808 808 809 809 810 811 811 811 811 810 810 809 809 809 808 808 809 809 809 808 808 808 807 807 807 807 806 806 806 805 804
797 798 800 800 801 802 802 803 804 804 805 806 807 807 808 809 809 809 809 809 809 808 808 807 807 807 807 807 806 806 806 805 805 805 805 805 805 804 803 803 803 802
796 798 799 800 800 800 801 801 802 803 804 804 805 805 806 806 807 807 807 807 807 806 806 806 805 805 805 804 804 804 803 803 803 803 803 802 802 801 801 800 800 799
795 796 797 799 800 799 799 800 800 801 802 802 803 803 804 804 805 805 805 805 805 804 804 804 803 803 803 802 802 802 801 801 801 801 800 800 799 798 798 798 797 797
792 792 793 796 798 797 797 798 798 799 800 800 801 801 802 803 803 803 803 803 803 802 802 802 801 800 800 800 800 799 799 799 798 798 797 797 796 795 795 795 794 794
791 791 791 793 795 795 795 796 796 797 798 798 799 799 800 801 801 801 801 801 801 800 800 799 798 798 798 798 798 797 797 797 796 796 795 794 794 793 793 792 791 791
790 790 790 791 792 792 793 794 794 795 795 796 796 797 798 799 799 799 799 799 799 799 799 798 796 796 796 796 795 795 795 795 794 794 793 792 792 791 791 790 789 789
788 789 788 789 789 790 790 791 792 792 793 794 794 795 796 796 797 797 797 797 797 797 797 796 795 794 794 793 793 793 792 792 792 792 791 791 790 789 789 788 787 787
786 787 786 787 787 787 788 788 789 790 790 791 792 792 793 794 794 794 794 795 794 794 795 794 793 793 792 792 791 791 790 790 790 789 789 788 788 787 787 787 786 785
785 784 784 784 784 784 785 786 786 787 787 789 790 790 791 792 792 792 792 792 792 792 792 792 792 791 791 791 790 789 789 789 788 787 786 785 785 785 785 784 784 783
782 781 781 781 780 781 782 783 784 784 785 787 788 788 789 789 790 789 789 790 790 790 790 790 790 790 790 790 789 789 788 788 786 786 784 783 783 782 782 782 781 781
777 778 778 778 778 780 780 781 782 782 784 785 785 786 787 786 787 787 787 787 788 788 788 788 788 789 788 788 788 787 787 786 785 784 783 782 781 780 780 779 779 779
774 775 775 776 777 779 779 779 780 781 782 783 784 784 784 784 784 784 784 785 786 786 787 787 787 787 787 787 786 785 784 784 783 782 781 780 778 778 778 777 777 777
771 772 773 775 776 777 777 778 779 780 781 781 782 782 782 782 782 783 784 786 787 787 787 787 786 786 785 784 783 783 782 781 781 780 778 777 777 776 776 775 775 775
769 770 772 773 774 775 776 777 778 779 779 780 781 781 781 782 782 783 786 787 786 786 784 784 783 782 781 779 778 779 779 779 779 778 776 776 775 775 774 773 773 772
766 768 770 771 772 772 774 776 777 778 779 779 780 780 780 781 781 781 782 783 782 782 781 781 780 779 778 777 776 777 777 777 777 776 774 774 774 773 772 771 770 770
764 766 768 769 771 773 776 778 778 778 780 780 779 779 779 779 778 778 778 779 779 779 779 779 778 777 777 775 775 775 775 775 775 774 773 773 772 771 770 769 768 768